Temp
-1 -1 -1 -1 -1 -2 -2 -3 -4 -4 -4 -4 -5 -7 -7 -8 -8 -9 -9 -10 -10 -11 -11 -11 -11 -11 -11 -11 -12 -12 -12 -11 -12 -11 -10 -11 -11 -11 -11 -11 -12 -12 -13 -10
-2 -1 -2 -2 -2 -2 -3 -4 -4 -5 -5 -5 -6 -7 -8 -9 -9 -10 -11 -11 -12 -11 -12 -12 -11 -11 -12 -12 -12 -12 -12 -12 -12 -12 -12 -12 -12 -12 -12 -11 -11 -11 -13 -10
-2 -2 -2 -3 -3 -3 -4 -4 -5 -5 -5 -7 -8 -9 -9 -10 -11 -11 -12 -12 -12 -12 -12 -13 -13 -13 -13 -13 -14 -13 -13 -12 -12 -12 -12 -12 -12 -12 -13 -13 -13 -12 -11 -11
-3 -3 -3 -3 -3 -4 -4 -4 -6 -6 -7 -7 -9 -10 -11 -11 -12 -12 -12 -12 -13 -14 -14 -14 -14 -14 -14 -13 -14 -14 -14 -14 -13 -13 -13 -13 -13 -14 -14 -14 -13 -13 -13 -13
-3 -3 -3 -3 -4 -4 -4 -5 -6 -7 -7 -8 -9 -10 -11 -12 -12 -13 -13 -14 -14 -14 -15 -16 -16 -16 -16 -15 -15 -15 -15 -15 -15 -15 -14 -14 -14 -14 -14 -14 -14 -14 -15 -15
-4 -4 -4 -4 -4 -5 -5 -6 -6 -7 -8 -9 -10 -12 -13 -13 -13 -14 -15 -15 -15 -15 -15 -15 -15 -16 -16 -16 -16 -16 -16 -15 -15 -15 -15 -15 -15 -16 -16 -15 -15 -15 -15 -16
-4 -4 -4 -4 -5 -5 -5 -6 -6 -7 -8 -9 -11 -12 -13 -14 -14 -15 -15 -15 -15 -15 -15 -15 -15 -15 -16 -16 -15 -15 -15 -15 -15 -15 -15 -17 -17 -17 -16 -16 -15 -15 -15 -15
-5 -5 -5 -5 -5 -6 -6 -6 -7 -7 -8 -10 -12 -12 -13 -14 -14 -14 -15 -15 -16 -15 -15 -15 -15 -16 -16 -16 -16 -16 -15 -16 -16 -16 -16 -16 -15 -16 -17 -17 -15 -16 -16 -16
-5 -5 -5 -5 -6 -6 -6 -7 -7 -8 -9 -10 -12 -13 -13 -13 -14 -14 -15 -15 -15 -15 -15 -16 -17 -17 -17 -17 -16 -16 -16 -16 -16 -16 -18 -17 -18 -18 -17 -16 -16 -16 -16 -16
-5 -6 -5 -6 -6 -6 -6 -7 -7 -8 -9 -11 -12 -12 -13 -13 -14 -14 -14 -14 -14 -14 -15 -16 -17 -17 -18 -18 -18 -18 -17 -17 -17 -17 -17 -16 -17 -17 -17 -17 -16 -16 -17 -16
-5 -6 -6 -6 -6 -6 -6 -7 -8 -9 -9 -11 -12 -13 -13 -13 -14 -14 -14 -14 -14 -14 -15 -17 -17 -18 -18 -18 -18 -18 -18 -18 -18 -18 -18 -19 -18 -17 -19 -19 -18 -18 -17 -17
-6 -6 -6 -6 -6 -7 -7 -7 -8 -9 -10 -11 -12 -13 -13 -13 -13 -14 -14 -15 -14 -15 -15 -16 -17 -17 -18 -18 -18 -18 -18 -18 -18 -18 -18 -18 -18 -18 -18 -19 -18 -18 -18 -17
-6 -7 -7 -7 -7 -7 -7 -8 -9 -10 -10 -11 -12 -13 -13 -13 -13 -14 -14 -14 -14 -15 -15 -15 -16 -16 -17 -17 -18 -17 -17 -18 -18 -19 -18 -19 -18 -19 -19 -18 -18 -18 -18 -18
-7 -7 -7 -7 -7 -7 -7 -8 -9 -10 -10 -11 -12 -13 -13 -13 -14 -14 -14 -14 -14 -15 -15 -15 -16 -16 -17 -17 -17 -17 -17 -18 -18 -18 -18 -19 -19 -19 -19 -19 -18 -18 -19 -18
-7 -7 -7 -7 -7 -7 -8 -8 -9 -10 -11 -11 -12 -13 -14 -14 -14 -14 -15 -14 -14 -14 -15 -15 -16 -16 -16 -16 -17 -16 -16 -17 -18 -18 -18 -19 -19 -19 -19 -18 -18 -19 -18 -17
-7 -7 -7 -7 -7 -7 -8 -9 -10 -10 -11 -11 -12 -13 -14 -15 -15 -15 -15 -15 -15 -15 -15 -15 -15 -15 -16 -16 -16 -16 -17 -18 -18 -18 -18 -18 -19 -19 -19 -18 -18 -18 -18 -18
-7 -7 -7 -7 -7 -7 -8 -9 -10 -10 -11 -12 -12 -13 -13 -14 -15 -15 -15 -15 -15 -15 -16 -15 -15 -16 -16 -16 -16 -17 -17 -18 -18 -18 -18 -18 -18 -18 -18 -18 -18 -18 -18 -18
-7 -7 -7 -7 -7 -8 -8 -9 -9 -10 -11 -12 -12 -13 -14 -14 -15 -15 -15 -15 -16 -16 -16 -16 -16 -16 -16 -17 -16 -17 -18 -18 -18 -18 -18 -19 -18 -18 -18 -18 -18 -18 -17 -17
-7 -7 -7 -7 -7 -7 -8 -9 -9 -10 -11 -12 -13 -13 -14 -14 -15 -16 -16 -17 -17 -18 -17 -17 -17 -17 -16 -16 -17 -17 -17 -17 -18 -18 -18 -18 -18 -18 -18 -18 -18 -18 -17 -17
-8 -8 -7 -7 -8 -8 -8 -9 -10 -11 -11 -12 -12 -14 -14 -15 -15 -15 -17 -17 -17 -18 -17 -17 -17 -15 -16 -16 -16 -17 -17 -18 -18 -18 -17 -17 -17 -17 -17 -18 -18 -18 -18 -18
-9 -8 -8 -8 -8 -9 -9 -10 -10 -11 -12 -13 -13 -14 -15 -14 -15 -15 -16 -17 -17 -17 -17 -17 -17 -16 -16 -16 -17 -18 -18 -18 -18 -18 -18 -18 -18 -18 -18 -18 -18 -18 -19 -18
-9 -9 -8 -9 -9 -9 -9 -10 -11 -12 -12 -13 -13 -14 -14 -15 -15 -16 -17 -17 -18 -17 -18 -17 -16 -15 -16 -17 -18 -18 -18 -18 -18 -18 -18 -18 -19 -18 -18 -19 -19 -19 -19 -19
-9 -9 -9 -10 -9 -10 -10 -11 -12 -13 -13 -13 -14 -14 -15 -15 -16 -17 -17 -18 -17 -17 -18 -17 -16 -16 -17 -18 -18 -18 -18 -18 -18 -18 -18 -18 -19 -19 -19 -19 -19 -20 -20 -20
-10 -10 -10 -9 -9 -11 -11 -12 -13 -13 -13 -14 -14 -14 -15 -15 -16 -16 -17 -17 -17 -17 -17 -16 -16 -17 -17 -17 -18 -18 -18 -18 -18 -18 -18 -18 -19 -19 -20 -20 -20 -20 -20 -20
-10 -10 -9 -10 -10 -11 -12 -12 -13 -13 -13 -14 -14 -14 -14 -15 -16 -16 -16 -17 -17 -16 -15 -16 -17 -17 -17 -17 -18 -18 -18 -18 -18 -18 -18 -19 -19 -20 -20 -20 -20 -20 -21 -21
-9 -9 -10 -10 -11 -11 -12 -13 -13 -13 -14 -14 -14 -15 -15 -16 -15 -16 -15 -16 -15 -16 -16 -17 -17 -17 -18 -18 -18 -18 -18 -18 -18 -19 -19 -19 -20 -20 -20 -21 -21 -21 -21 -21
-9 -10 -10 -10 -11 -12 -12 -13 -13 -13 -13 -14 -15 -15 -15 -15 -16 -16 -16 -16 -16 -17 -17 -17 -18 -18 -18 -18 -18 -18 -18 -18 -19 -19 -19 -20 -20 -21 -21 -22 -22 -22 -22 -22
Height
3092 3086 3078 3070 3063 3059 3054 3049 3045 3041 3038 3037 3031 3031 3030 3028 3025 3022 3020 3017 3013 3010 3007 3004 3003 3001 3000 2997 2995 2994 2992 2989 2987 2987 2984 2984 2983 2983 2985 2986 2988 2986 2987 2982
3094 3086 3079 3072 3064 3058 3054 3050 3046 3042 3039 3035 3033 3030 3029 3026 3023 3019 3016 3014 3011 3008 3007 3004 3000 2999 2997 2995 2992 2988 2987 2984 2983 2982 2983 2979 2979 2980 2982 2983 2983 2981 2984 2981
3093 3086 3078 3073 3066 3061 3055 3051 3049 3044 3037 3035 3032 3028 3026 3023 3020 3016 3013 3011 3008 3005 3003 3003 2998 2996 2991 2988 2986 2986 2983 2977 2978 2979 2980 2979 2979 2978 2979 2980 2979 2977 2976 2978
3090 3085 3080 3073 3068 3063 3058 3052 3048 3043 3038 3032 3029 3027 3023 3020 3015 3014 3010 3009 3006 3002 2999 2996 2995 2991 2984 2982 2979 2979 2978 2975 2975 2975 2975 2976 2976 2976 2975 2974 2974 2974 2974 2973
3091 3084 3078 3075 3069 3064 3059 3052 3048 3042 3036 3032 3028 3026 3022 3017 3014 3012 3008 3006 3004 3001 2997 2995 2991 2988 2980 2974 2973 2973 2974 2973 2972 2972 2972 2973 2974 2973 2971 2970 2969 2970 2968 2968
3093 3086 3079 3072 3067 3060 3055 3052 3047 3040 3034 3029 3026 3022 3018 3015 3013 3011 3007 3003 3001 2997 2994 2991 2989 2987 2984 2977 2974 2972 2971 2971 2970 2970 2971 2972 2974 2973 2972 2971 2969 2969 2966 2965
3095 3088 3081 3073 3067 3061 3055 3049 3044 3037 3033 3028 3024 3021 3018 3014 3011 3009 3005 3002 2999 2997 2993 2989 2988 2987 2985 2981 2979 2976 2973 2970 2971 2971 2969 2973 2973 2973 2971 2970 2968 2967 2965 2962
3094 3088 3081 3074 3067 3060 3054 3048 3042 3036 3031 3027 3024 3020 3017 3014 3011 3008 3003 2999 2997 2994 2992 2989 2987 2986 2984 2982 2980 2977 2974 2972 2972 2973 2972 2974 2972 2971 2970 2967 2964 2961 2960 2958
3093 3087 3080 3072 3066 3059 3053 3048 3042 3035 3031 3027 3022 3018 3016 3014 3011 3008 3004 3000 2996 2994 2991 2989 2989 2987 2985 2985 2982 2980 2978 2975 2975 2973 2973 2972 2972 2969 2966 2964 2960 2957 2956 2953
3092 3086 3079 3072 3065 3057 3051 3044 3038 3033 3029 3025 3022 3018 3016 3013 3010 3006 3003 3001 2998 2995 2992 2991 2990 2990 2988 2986 2985 2980 2977 2976 2975 2974 2973 2971 2969 2966 2963 2964 2963 2954 2951 2947
3090 3084 3077 3070 3062 3055 3048 3042 3036 3032 3027 3024 3021 3017 3015 3013 3010 3007 3005 3001 2999 2996 2994 2994 2993 2991 2990 2988 2986 2983 2981 2979 2977 2975 2973 2972 2969 2964 2964 2958 2952 2947 2943 2939
3087 3081 3075 3067 3059 3052 3046 3040 3034 3029 3027 3025 3021 3017 3015 3013 3011 3008 3005 3003 2999 2998 2995 2995 2993 2992 2991 2988 2986 2984 2983 2983 2981 2980 2976 2971 2966 2960 2957 2952 2945 2941 2937 2933
3084 3077 3070 3065 3057 3050 3043 3037 3033 3029 3025 3022 3019 3017 3016 3013 3010 3008 3006 3003 2999 2998 2996 2994 2993 2992 2990 2989 2986 2984 2982 2979 2977 2974 2970 2964 2958 2955 2950 2944 2939 2935 2931 2926
3080 3073 3067 3061 3055 3048 3040 3035 3030 3028 3024 3022 3020 3016 3014 3012 3010 3007 3005 3002 2999 2996 2995 2993 2991 2989 2987 2986 2985 2982 2980 2975 2971 2967 2963 2956 2952 2947 2940 2933 2929 2926 2922 2918
3077 3070 3064 3057 3051 3044 3037 3032 3027 3025 3027 3022 3017 3015 3013 3009 3007 3005 3002 2999 2996 2994 2991 2990 2988 2986 2984 2982 2980 2977 2975 2971 2968 2962 2957 2951 2944 2937 2931 2924 2920 2917 2913 2909
3073 3066 3060 3054 3047 3041 3034 3028 3026 3023 3021 3018 3015 3014 3010 3007 3004 3002 2998 2995 2991 2989 2987 2985 2983 2983 2982 2978 2974 2974 2970 2966 2963 2958 2951 2945 2936 2930 2923 2915 2910 2907 2904 2901
3069 3062 3056 3050 3043 3037 3032 3028 3024 3021 3019 3017 3013 3012 3009 3005 3002 2997 2992 2988 2984 2982 2980 2978 2978 2978 2978 2974 2971 2968 2965 2962 2959 2953 2943 2934 2928 2918 2914 2908 2903 2898 2894 2891
3064 3058 3051 3045 3038 3032 3027 3022 3020 3018 3017 3015 3013 3011 3006 3002 2997 2991 2986 2980 2976 2973 2971 2971 2973 2972 2972 2969 2967 2964 2961 2958 2954 2947 2938 2928 2920 2914 2910 2904 2898 2893 2887 2883
3058 3052 3046 3040 3035 3029 3024 3020 3018 3016 3018 3013 3011 3009 3004 2998 2993 2987 2980 2975 2971 2969 2968 2967 2969 2966 2966 2964 2962 2959 2956 2952 2944 2938 2930 2922 2916 2910 2904 2899 2893 2887 2882 2878
3053 3047 3041 3034 3031 3025 3022 3017 3017 3014 3012 3009 3008 3005 3002 2999 2992 2984 2979 2973 2970 2968 2967 2965 2963 2960 2961 2959 2957 2956 2951 2946 2937 2928 2923 2917 2911 2903 2898 2892 2887 2882 2877 2873
3049 3042 3037 3031 3026 3023 3020 3019 3018 3014 3011 3008 3005 3002 2998 2993 2988 2983 2978 2973 2970 2968 2967 2965 2961 2959 2958 2957 2956 2951 2946 2939 2930 2922 2915 2909 2903 2897 2892 2887 2882 2877 2873 2869
3045 3040 3032 3028 3026 3023 3023 3020 3017 3014 3010 3006 3002 2998 2994 2989 2983 2978 2974 2972 2970 2966 2965 2963 2959 2958 2957 2954 2950 2946 2940 2932 2924 2918 2912 2906 2900 2894 2888 2882 2877 2873 2868 2864
3040 3035 3030 3029 3028 3026 3022 3020 3016 3012 3007 3003 2998 2994 2989 2984 2980 2976 2973 2970 2967 2966 2963 2959 2958 2956 2953 2949 2945 2939 2931 2924 2918 2913 2907 2901 2896 2890 2885 2880 2874 2869 2864 2860
3037 3032 3030 3029 3027 3025 3021 3017 3013 3008 3003 2999 2994 2991 2988 2982 2978 2975 2971 2968 2966 2962 2959 2956 2954 2951 2948 2944 2938 2931 2924 2919 2913 2908 2902 2897 2892 2886 2881 2876 2871 2866 2861 2857
3034 3032 3030 3027 3025 3021 3015 3011 3007 3003 2998 2994 2989 2985 2982 2978 2976 2973 2970 2967 2962 2959 2956 2954 2950 2947 2942 2937 2931 2924 2918 2914 2909 2903 2898 2892 2887 2882 2877 2872 2867 2863 2858 2854
3031 3029 3027 3024 3020 3017 3012 3007 3003 2998 2994 2989 2985 2981 2976 2974 2972 2970 2968 2965 2960 2957 2953 2949 2945 2941 2936 2931 2925 2919 2913 2909 2904 2898 2893 2888 2883 2878 2873 2868 2863 2859 2855 2851
3028 3026 3023 3019 3015 3011 3006 3002 2997 2993 2989 2986 2982 2978 2975 2971 2968 2965 2963 2961 2957 2952 2948 2944 2939 2935 2930 2924 2918 2913 2908 2904 2899 2894 2889 2884 2879 2873 2869 2865 2860 2855 2851 2847
Wind_Speed
40 39 38 36 33 27 23 18 16 14 19 15 21 15 11 11 13 14 12 19 20 12 16 23 11 5 8 11 9 9 10 9 10 15 13 16 14 13 10 4 4 3 1 4
39 40 38 35 32 31 26 21 21 13 22 20 20 13 10 11 17 17 15 17 10 16 15 14 6 13 18 22 24 17 12 7 4 5 7 8 9 10 9 9 11 11 4 2
40 40 39 35 31 29 26 22 22 23 27 25 22 17 14 18 17 17 17 9 10 13 19 12 16 20 16 18 24 19 22 21 20 11 10 9 9 11 14 11 8 12 20 24
44 42 38 36 32 28 25 27 26 29 27 27 21 15 15 22 22 13 9 6 20 22 20 22 18 29 30 30 26 15 19 15 15 19 23 19 15 14 14 18 21 20 24 30
43 42 41 35 31 28 27 30 29 29 25 24 17 17 19 18 16 10 15 19 17 20 19 19 25 21 24 22 18 14 14 16 22 26 19 13 6 3 6 5 5 10 5 11
42 41 41 39 36 33 33 33 34 32 29 20 18 21 17 17 15 10 15 17 16 16 17 14 8 9 21 27 21 18 13 8 4 2 3 4 2 9 10 4 6 8 8 11
41 40 41 41 38 35 35 36 36 34 25 19 20 15 16 14 13 11 13 11 13 14 14 9 7 8 10 20 22 21 14 8 6 5 7 3 11 14 13 15 6 14 12 12
39 39 39 41 39 36 34 35 35 30 23 20 15 14 14 10 12 14 16 14 15 14 11 11 6 8 8 14 17 18 16 9 5 4 5 3 4 15 23 19 19 18 18 18
39 37 37 39 39 37 34 34 34 26 24 20 16 16 12 13 17 17 18 14 13 10 12 9 8 8 10 7 8 15 11 16 8 5 1 2 5 25 30 21 18 10 16 29
40 36 36 39 40 38 35 33 32 24 24 20 15 13 11 15 19 19 22 16 14 12 13 12 8 7 8 8 11 15 19 10 15 9 3 4 7 31 31 6 12 28 30 32
41 36 36 39 39 37 36 32 29 23 24 18 20 11 10 13 17 20 20 12 12 10 12 10 5 6 7 6 10 11 12 10 10 10 5 5 23 31 24 23 28 30 32 32
40 39 36 38 38 37 37 32 28 20 22 14 18 9 7 9 13 16 17 14 10 8 7 8 4 5 5 5 1 9 5 8 9 6 10 18 28 24 21 28 32 31 31 30
42 40 35 36 38 37 35 28 25 17 21 13 17 9 6 8 10 12 13 13 10 5 4 4 5 4 6 5 3 5 7 13 14 11 26 27 25 28 28 27 29 28 29 31
41 37 35 36 37 37 32 29 20 13 19 15 17 9 8 9 10 12 13 11 11 9 9 7 7 5 5 4 5 6 9 13 16 20 34 36 36 36 37 33 27 27 29 29
40 38 35 35 36 36 30 30 15 12 13 16 14 11 19 12 15 13 17 16 13 12 13 13 12 12 12 12 11 15 15 19 18 31 39 38 43 44 37 32 28 25 29 29
39 38 34 34 37 34 32 26 14 12 13 16 11 14 20 18 13 18 19 18 16 19 18 19 20 15 12 10 19 22 22 23 20 37 43 43 45 40 31 32 28 28 32 30
40 38 36 36 35 30 30 18 14 10 11 13 8 12 23 18 22 24 25 24 20 17 23 24 22 18 17 21 25 20 19 19 25 41 44 47 41 37 31 30 27 25 28 28
39 39 37 35 28 29 29 19 11 8 12 7 5 16 22 23 30 32 32 26 21 17 16 20 21 21 21 18 17 18 18 21 33 42 43 40 35 31 27 26 25 21 19 19
39 38 37 31 27 30 23 14 7 11 10 6 6 17 19 28 31 35 32 27 17 11 9 10 11 17 10 13 17 23 24 28 45 46 39 33 30 29 29 27 26 24 22 19
38 38 35 30 29 25 17 10 9 9 9 8 9 21 24 28 31 33 26 10 8 6 6 7 7 11 12 18 19 20 28 39 46 42 34 30 29 30 30 30 29 27 26 23
35 36 33 26 22 14 10 7 13 10 10 8 15 25 28 30 32 30 12 8 7 4 4 5 5 5 8 11 21 29 33 43 42 36 33 33 32 32 31 29 27 27 25 23
33 32 25 16 10 6 5 11 12 10 8 16 27 29 29 32 27 16 9 7 5 4 5 5 4 5 9 26 27 27 40 41 34 31 29 28 28 29 29 29 28 27 26 24
30 25 10 10 5 6 7 16 16 20 23 27 28 28 30 23 19 11 6 4 6 10 5 4 4 16 25 27 32 38 41 35 30 27 27 29 29 28 27 26 26 26 25 24
25 14 8 4 6 13 24 23 23 24 25 26 25 24 23 26 16 7 6 6 7 4 5 4 14 25 27 33 37 42 36 30 27 27 28 28 29 28 27 26 25 25 24 23
17 6 4 8 20 20 23 22 21 23 24 25 26 25 21 17 8 5 7 5 5 6 12 15 26 28 33 36 41 39 32 28 27 27 28 28 28 28 27 26 25 25 24 23
6 4 15 18 20 18 19 21 21 22 23 23 23 14 8 5 5 4 5 5 7 20 27 32 34 34 36 37 41 34 29 26 26 27 28 28 28 28 27 27 26 24 23 22
6 13 18 22 22 21 23 22 22 23 23 22 19 7 5 7 7 7 6 15 28 30 29 29 31 34 35 39 35 29 26 26 26 27 28 28 28 28 27 25 25 25 24 22
Wind_Direction
2 1 1 0 7 13 7 17 13 22 13 2 17 23 14 349 342 342 338 333 326 318 303 314 310 275 280 280 289 310 279 266 250 268 258 268 254 226 217 204 193 209 172 297
5 3 4 4 7 8 15 21 20 15 10 15 10 9 0 347 337 338 328 343 332 312 321 330 287 302 310 300 296 289 265 248 269 276 256 241 224 225 204 223 245 225 169 245
9 9 5 7 8 9 15 18 19 8 359 3 358 0 348 341 342 337 327 322 306 318 321 320 308 316 302 295 315 306 292 251 251 241 274 294 279 282 293 272 243 259 244 266
9 9 7 5 6 8 11 14 12 2 349 357 359 356 344 340 349 11 351 327 329 341 339 324 324 322 312 296 309 275 309 289 277 274 262 273 297 309 297 282 278 265 284 289
7 6 4 5 4 6 1 9 7 358 352 354 354 353 352 348 359 357 330 335 343 334 333 331 334 354 356 315 306 300 290 279 293 301 303 298 283 295 354 302 296 291 10 33
7 4 3 1 1 0 2 3 359 356 354 357 358 359 360 350 351 342 337 341 351 6 350 331 342 352 5 36 48 37 21 347 331 287 307 273 112 40 29 45 26 5 14 4
6 3 1 360 359 358 356 355 354 354 356 1 359 3 359 354 3 357 356 360 10 16 21 50 74 15 14 35 34 24 26 50 21 337 357 78 152 22 7 359 242 303 281 275
3 2 360 359 357 354 351 350 351 352 356 359 357 3 5 24 32 28 14 6 356 355 351 29 37 31 30 22 29 34 45 54 66 9 324 159 292 347 357 341 312 298 277 299
360 359 358 356 355 353 350 349 349 353 359 358 12 0 24 40 36 34 36 26 21 18 30 32 26 32 1 357 39 48 41 49 58 37 337 224 19 349 340 336 277 259 301 318
356 355 354 352 351 352 351 349 350 351 0 4 9 8 36 39 32 29 28 41 51 59 47 42 34 31 18 11 7 357 17 14 27 19 299 281 265 334 330 303 292 298 314 315
355 354 352 351 349 349 351 348 348 348 357 5 4 17 34 33 28 25 23 36 39 45 39 34 25 15 20 14 25 17 12 360 1 352 320 335 320 326 333 316 315 315 313 312
350 351 349 350 350 348 349 347 345 345 355 6 9 11 26 25 20 16 19 22 23 24 32 32 33 23 16 8 49 31 42 45 2 326 301 321 332 317 312 307 305 308 311 313
345 345 345 348 348 346 347 347 342 341 353 357 359 0 358 3 7 4 3 6 359 338 331 340 346 342 326 326 296 15 351 7 0 347 344 333 336 330 326 309 300 297 302 306
340 342 343 344 347 344 345 346 339 339 350 352 353 355 348 337 348 351 342 334 332 307 280 283 284 304 301 291 289 302 327 332 333 337 339 333 332 330 323 313 300 296 298 303
340 342 341 342 343 342 342 344 336 332 348 349 356 6 346 325 326 319 328 320 294 295 272 274 279 279 280 276 278 300 303 308 319 332 336 327 330 327 323 316 306 292 294 298
338 339 340 340 339 338 341 346 330 320 330 349 351 348 359 344 335 328 330 320 298 269 271 266 270 280 269 268 281 318 307 291 305 331 327 327 326 322 321 319 307 293 295 298
336 337 338 338 334 333 339 336 327 319 318 337 331 345 352 351 346 342 337 328 316 281 262 261 265 270 267 275 296 301 296 284 308 325 327 328 328 328 328 327 320 306 297 293
334 334 337 339 335 333 340 334 322 316 319 328 320 338 336 348 350 341 339 329 318 300 274 261 257 263 270 279 283 294 298 289 316 327 329 326 326 328 328 325 327 327 318 304
331 332 339 339 338 332 331 333 321 320 314 289 289 340 338 340 341 339 336 324 315 300 288 270 262 259 254 257 272 287 292 310 326 328 330 329 326 326 329 332 333 333 334 325
331 331 343 338 328 326 326 331 339 321 317 288 288 331 334 333 337 334 327 305 300 299 294 295 269 275 266 271 281 299 310 318 327 330 331 332 333 332 334 333 333 333 333 330
334 339 340 329 324 325 340 352 345 315 310 302 309 324 324 328 330 328 319 302 289 285 290 292 271 279 287 307 321 316 313 325 329 331 334 334 334 334 335 333 331 330 330 329
340 335 329 330 331 338 348 336 325 314 302 307 316 318 320 323 326 322 304 290 268 263 285 266 255 327 320 328 325 312 323 328 330 332 333 335 336 336 335 334 333 331 329 330
339 342 333 334 327 338 308 327 323 324 310 320 321 317 316 320 324 300 283 269 254 294 257 253 288 332 332 331 321 327 330 331 330 332 336 339 339 338 337 336 335 334 331 329
332 332 324 324 325 316 323 325 323 321 318 317 322 316 306 310 309 280 275 269 292 261 252 261 324 334 331 327 330 331 330 329 331 336 339 340 339 339 339 339 337 335 334 334
318 314 319 303 323 328 326 326 322 320 321 319 319 315 308 297 273 270 287 275 262 260 296 293 309 320 325 329 330 330 329 330 332 337 339 339 338 339 339 339 338 338 336 333
299 248 323 319 326 332 324 325 325 317 318 321 321 307 286 271 260 254 257 264 289 308 311 312 312 314 320 324 328 328 328 329 333 337 337 338 337 337 338 339 339 335 331 329
311 318 331 330 330 332 333 325 325 321 318 321 318 290 266 278 260 253 258 296 314 317 319 313 314 313 317 322 326 326 326 329 334 334 335 337 337 337 337 336 333 334 333 331